Showing default

NUSAT-35 (WILLIAMINA), 55048

Orbit data source: Space-Track

NUSAT-35 (WILLIAMINA), 55048 is a payload satellite owned by URUGUS S.A. (AR) in SSO that was launched on Tue, 03 Jan 2023 UTC via an FALCON 9 launch vehicle from the Air Force Eastern Test Range (AFETR). Payload-class satellites include a variety of spacecraft equipped with specific instruments for various scientific and technological missions. These include communications satellites like Starlink; space stations such as the ISS; scientific satellites like the Hubble; Earth observation satellites from companies like Planet Labs, Umbra, and HawkEye 360; GPS; miniature CubeSats for education and research; and military/defense satellites.

Loading next visibility...
Identifier
55048, 2023-001AR
Orbit
SSO
Country
Flag of ARAR / ARGN
Related business
Manufacturer
URUGUS S.A.
Mission
Operational Commercial Imaging
Bus & Motor
NEWSAT V, Unknown motor
Mass
41.5 kg wet, 38.5 kg dry
Launch date (UTC)
2023-01-03 (4 years ago)
Launch vehicle
FALCON 9
Launch site
Air Force Eastern Test Range (AFETR)
Object type
Payload
Rocket body
Debris
Shape & HBR
Box, 1.0 m
Radar Cross Section
0.542 m², Medium (>0.1 m² and < 1m²)

Expand to show TLE details & history
Last TLE update: 7 hours ago

TLE from 7 hours ago
0 NUSAT-35 (WILLIAMINA)
1 55048U 23001AR  26227.84436751  .00008516  00000-0  24106-3 0  9991
2 55048  97.1801 279.1354 0009200 238.9824 121.0518 15.36488524201566
Epoch: 2026-08-15T20:15Z
TLE epoch observation values (Epoch: 2026-08-15T20:15:53.352Z)
Latitude
-0.00002°
Longitude
10.91369°
Altitude
462.87 km
Speed
7.633 km/s
True Right ascension
18h 36m 32s
True Declination
0° 00' 00"
Sunlit
Object was in full shadow at epoch
Visualization orbit readout
Latitude
Unknown
Longitude
Unknown
Altitude
Unknown
Speed
Unknown
Apparent Right ascension
Unknown
Apparent Declination
Unknown
Sunlit
N/A
Visualization observer readout
Local Sidereal Time
18:17:24
Azimuth
Unknown
Elevation
Unknown
Doppler factor
Unknown
Orbital elements
Apogee altitude
459.722 km
Perigee altitude
447.152 km
Semi-major axis
6,831.574 km
Eccentricity
0.00092
Inclination
97.1801°
RAAN
279.1354°
Arg. of periapsis
238.9824°
True anomaly
121.14206°
Mean anomaly
121.0518°
Eccentric anomaly
121.09694°
Mean motion
3.84381 °/min
Orbital period
93.66 mins
BSTAR
0.00024106
Loading maneuver chart data...
Computing Atmospheric mass density...
Loading historical data...
Loading historical data...
Loading historical data...
Loading historical data...
Loading historical data...
Loading historical data...
Loading historical data...

Documentation

Showing up to 5 results
|